Location: Newark
(48.6461°N, 4.3644°W)
Time: 06:44:11
(UTC+00:00)

STARLINK 1038 - Pass Details

Date: 12 December 2019
Orbit: 549 x 550 km, 53.0° (Epoch: 26 January)

Event Time Altitude Azimuth Distance (km) Brightness Sun altitude
Exits shadow 04:44:33 21° 131° (SE) 1,306 5.9 -31.2°
Drops below altitude 10° 04:46:00 10° 127° (SE) 1,866 6.9 -30.9°
Sets 04:48:16 0° 126° (SE) 2,760 8.0 -30.6°
